Location: An Tulaigh
(53.1928°N, 8.1647°W)
Time: 03:05:05
(UTC+00:00)

Cosmos 2195 Rocket - Pass Details

Date: 15 May 2026
Orbit: 947 x 993 km, 82.9° (Epoch: 8 June)

Event Time Altitude Azimuth Distance (km) Brightness Sun altitude
Rises 22:24:08 0° 349° (N) 3,685 9.0 -12.9°
Reaches altitude 10° 22:26:40 10° 350° (N) 2,727 8.1 -13.1°
Maximum altitude 22:32:56 86° 80° (E) 972 4.5 -13.5°
Enters shadow 22:37:39 18° 169° (S) 2,154 5.7 -13.9°
